loading
|

WESTFORD NEEDLES, 2362

Orbit data source: Space-Track

WESTFORD NEEDLES, 2362 is space debris originally from a launch on Thu, 09 May 1963 UTC launched from the Air Force Western Test Range (AFWTR). Debris objects in space refer to the collection of defunct objects orbiting the Earth. Examples of debris include non-operational satellites, rocket bodies, and fragments generated from explosions, collisions, or faulty payload assembly.

Loading next visibility...
Next conjunction unknown
Loading greatness...
WESTFORD NEEDLES details
Identifier
2362, 1963-014M
Orbit
Active
Last TLE update9 hours ago
Origin
Flag of USUSAF SSD (US)
ManufacturerUnknown
MissionSpacecraft
Bus & MotorUnknown bus, Unknown motor
MassUnknown
Launch date (UTC)
1963-05-09 (61 years ago)
Launch vehicleUnknown
Launch site
Air Force Western Test Range (AFWTR)
Object type
Payload
Rocket body
Debris
Shape & HBRUnknown
Radar Cross SectionMedium (>0.1 m² and <1 m²)

Expand to show TLE details & history

TLE from 9 hours ago
0 WESTFORD NEEDLES
1 02362U 63014M   24286.42454442  .00001184  00000-0  14929-1 0  9998
2 02362  85.3544  82.8175 2472227  41.6427 334.8451  8.83425635952542
Epoch: 2024-10-12T10:11Z
Definitive object data (Epoch: 2024-10-12T10:11:20.637Z)
Latitude-0.00002°
Longitude-91.49907°
Altitude1,454.984 km
Speed7.841 km/s
True Right ascension05h 31m 16s
True Declination0° 00' 00"
Sunlit
Object was in daylight at TLE epoch
Predictive object data (real-time)
Latitude-22.75981°
Longitude90.37052°
Altitude5,753.218 km
Speed5.041 km/s
Apparent Right ascension19h 20m 18s
Apparent Declination-43° 48' 51"
Sunlit
Object is in daylight
Predictive observer data (real-time)
Local Sidereal Time14:06:57
Azimuth131.472° SE
Elevation-19.411°
Doppler factor1
Orbital elements
Apogee5,947.063 km
Perigee1,060.896 km
Semi-major axis9,882.117 km
Eccentricity0.2472227
Inclination85.3544°
RAAN82.8175°
Arg. of periapsis41.6427°
True anomaly318.45952°
Mean anomaly334.8451°
Eccentric anomaly327.16453°
Mean motion2.20937 °/min
BSTAR0.014929
Period162.94 mins
No data available

WESTFORD NEEDLES Visibility forecast

Observer location: 39.9160978°, -105.1181434

Span
Click to sort rows by Start time (UTC) header in descending order
Start Az.
Max El. time (UTC)
Max El. Az.
Max El.
End time (UTC)
End Az.
36 mins2024-10-12 21:34:57.002Z7.065° NNE2024-10-12 21:46:57.002Z89.008° E40.066°2024-10-12 22:10:57.002Z161.232° S
30 mins2024-10-13 00:19:57.002Z334.216° NNW2024-10-13 00:29:57.002Z276.27° WNW32.798°2024-10-13 00:49:57.002Z219.439° SW
10 mins2024-10-13 10:44:57.002Z162.294° S2024-10-13 10:49:57.002Z75.582° E39.777°2024-10-13 10:54:57.002Z13.675° NNE
14 mins2024-10-13 19:23:57.002Z44.754° NE2024-10-13 19:28:57.002Z66.065° ENE13.608°2024-10-13 19:37:57.002Z94.651° ESE